This demonstration page uses our WeatherBlox Daily Observations layout. Learn more.

Left ArrowRight Arrow

Hourly Observations for March 15, 2016

Temp ( °F °C ) Dew Point ( °F °C ) Humidity (%) Winds ( mph kmh ) Pressure ( in mb ) Visibility ( mi km ) Precip ( " mm )
12:12 am 00:12 Cloudy with Nearby Thunderstorms 54 12 52 11 94 94 N 13 20 29.62 1003 5 8 0.00 0.00
12:22 am 00:22 Cloudy with Rain 54 12 52 11 94 94 ENE 21 33 29.59 1002 5 8 0.00 0.00
12:32 am 00:32 Cloudy with Light Rain 55 12.8 52 11.1 90 90 ENE 9 15 29.56 1001 9 14 0.16 4.06
12:54 am 00:54 Partly Cloudy 55 12.8 51 10.6 87 87 N 10 17 29.55 1001 10 16 0.16 4.06
1:54 am 01:54 Clear 53 11.7 51 10.6 93 93 VRB 5 7 29.54 1001 10 16 0.00 0.00
2:54 am 02:54 Clear 48 8.9 48 8.9 100 100 NNE 5 7 29.54 1000 8 13 0.00 0.00
3:33 am 03:33 Clear with Mist and Fog 48 8.9 47 8.3 96 96 Calm 29.59 1002 2 2 0.00 0.00
3:38 am 03:38 Mostly Cloudy with Fog 46 8 46 8 100 100 S 3 6 29.59 1002 0 0 0.00 0.00
3:54 am 03:54 Mostly Cloudy with Mist and Fog 49 9.4 48 8.9 97 97 WSW 5 7 29.55 1001 1 1 0.00 0.00
3:58 am 03:58 Mostly Clear with Mist and Fog 48 9 48 9 100 100 W 3 6 29.59 1002 1 2 0.00 0.00
4:17 am 04:17 Clear with Mist and Fog 48 8.9 48 8.9 100 100 Calm 29.59 1002 2 3 0.00 0.00
4:24 am 04:24 Mostly Clear with Mist and Fog 48 9 48 9 100 100 W 3 6 29.59 1002 2 2 0.00 0.00
4:31 am 04:31 Mostly Cloudy with Mist and Fog 46 7.8 46 7.8 100 100 NNE 5 7 29.59 1002 1 1 0.00 0.00
4:35 am 04:35 Mostly Cloudy with Fog 43 6.1 43 6.1 100 100 N 5 7 29.59 1002 0 0 0.00 0.00
4:54 am 04:54 Mostly Cloudy with Fog 45 7.2 44 6.7 97 97 NW 5 7 29.55 1001 0 0 0.00 0.00
5:03 am 05:03 Mostly Cloudy with Fog 45 7 45 7 100 100 NNW 3 6 29.59 1002 0 0 0.00 0.00
5:19 am 05:19 Mostly Cloudy with Fog 43 6.1 43 6.1 100 100 NNW 5 7 29.59 1002 1 1 0.00 0.00
5:54 am 05:54 Mostly Cloudy with Fog 45 7.2 44 6.7 97 97 Calm 29.57 1001 1 1 0.00 0.00
6:04 am 06:04 Cloudy with Mist and Fog 43 6 43 6 100 100 NW 9 15 29.65 1004 1 1 0.00 0.00
6:10 am 06:10 Mostly Cloudy with Mist and Fog 46 8 45 7 93 93 NNW 12 19 29.59 1002 3 4 0.00 0.00
6:14 am 06:14 Mostly Cloudy with Mist and Fog 46 8 45 7 93 93 NW 7 11 29.62 1003 6 10 0.00 0.00
6:27 am 06:27 Partly Cloudy 47 8.3 46 7.8 97 97 NW 12 19 29.62 1003 10 16 0.00 0.00
6:54 am 06:54 Clear 47 8.3 46 7.8 97 97 NNW 7 11 29.61 1003 9 14 0.00 0.00
7:54 am 07:54 Sunny 48 8.9 45 7.2 89 89 NNW 12 19 29.63 1003 10 16 0.00 0.00
8:54 am 08:54 Sunny 49 9.4 43 6.1 80 80 NNW 17 28 29.65 1004 10 16 0.00 0.00
9:54 am 09:54 Sunny 49 9.4 42 5.6 77 77 NNW 10 17 29.67 1005 10 16 0.00 0.00
10:54 am 10:54 Partly Cloudy 51 10.6 43 6.1 74 74 NW 18 30 29.71 1006 10 16 0.00 0.00
11:54 am 11:54 Mostly Cloudy 52 11.1 42 5.6 69 69 NNW 18 30 29.72 1006 10 16 0.00 0.00
12:54 pm 12:54 Cloudy 51 10.6 41 5 69 69 NW 13 20 29.72 1006 10 16 0.00 0.00
1:54 pm 13:54 Mostly Cloudy 54 12.2 41 5 62 62 NW 14 22 29.70 1006 10 16 0.00 0.00
2:54 pm 14:54 Mostly Sunny 57 13.9 42 5.6 58 58 NNW 21 33 29.68 1005 10 16 0.00 0.00
3:54 pm 15:54 Partly Cloudy 58 14.4 41 5 53 53 NW 15 24 29.70 1006 10 16 0.00 0.00
4:54 pm 16:54 Mostly Cloudy 58 14.4 40 4.4 51 51 NW 12 19 29.70 1006 10 16 0.00 0.00
5:54 pm 17:54 Sunny 57 13.9 37 2.8 47 47 NNW 10 17 29.70 1006 10 16 0.00 0.00
6:54 pm 18:54 Partly Cloudy 54 12.2 39 3.9 57 57 N 8 13 29.73 1007 10 16 0.00 0.00
7:54 pm 19:54 Mostly Cloudy 49 9.4 36 2.2 61 61 WNW 23 37 29.76 1008 10 16 0.00 0.00
8:54 pm 20:54 Partly Cloudy 49 9.4 36 2.2 61 61 NW 25 41 29.79 1009 10 16 0.00 0.00
9:54 pm 21:54 Cloudy 47 8.3 39 3.9 74 74 WNW 10 17 29.82 1010 10 16 0.00 0.03
10:54 pm 22:54 Clear 45 7.2 38 3.3 77 77 W 9 15 29.83 1010 10 16 0.00 0.00
11:54 pm 23:54 Clear 43 6.1 37 2.8 80 80 W 7 11 29.85 1011 10 16 0.00 0.00

Powered by AerisWeather